• In Hungary
  • List of Countries
  • For 7 days
  • Water Temperature
  • Satellite Maps
  • Weather Map
  • News
  • Weather Widgets
  • user-avatar
    Login

    Hourly Weather Akkol'

    Today, 18 June, Monday

    Time Temperature Precipitation Wind Pressure Humidity
    00:00 +11°C° 0 mm 1 mps 719 mmHg 71%
    01:00 +9°C° 0 mm 2 mps 719 mmHg 72%
    02:00 +9°C° 0 mm 2 mps 719 mmHg 74%
    03:00 +9°C° 0 mm 2 mps 719 mmHg 74%
    04:00 +9°C° 0 mm 2 mps 719 mmHg 75%
    05:00 +10°C° 0 mm 2 mps 719 mmHg 74%
    06:00 +13°C° 0 mm 2 mps 719 mmHg 68%
    07:00 +14°C° 0 mm 2 mps 719 mmHg 62%
    08:00 +16°C° 0 mm 2 mps 719 mmHg 57%
    09:00 +17°C° 0 mm 2 mps 719 mmHg 53%
    10:00 +18°C° 0 mm 2 mps 719 mmHg 49%
    11:00 +19°C° 0 mm 2 mps 718 mmHg 44%
    12:00 +19°C° 0 mm 2 mps 718 mmHg 43%
    13:00 +20°C° 0 mm 2 mps 718 mmHg 42%
    14:00 +20°C° 0 mm 2 mps 718 mmHg 41%
    15:00 +21°C° 0 mm 2 mps 717 mmHg 42%
    16:00 +21°C° 0 mm 2 mps 717 mmHg 42%
    17:00 +21°C° 0 mm 3 mps 717 mmHg 42%
    18:00 +20°C° 0 mm 3 mps 717 mmHg 47%
    19:00 +18°C° 0 mm 2 mps 717 mmHg 51%
    20:00 +17°C° 0 mm 2 mps 717 mmHg 55%
    21:00 +16°C° 0 mm 2 mps 717 mmHg 56%
    22:00 +15°C° 0 mm 2 mps 717 mmHg 57%
    23:00 +14°C° 0 mm 2 mps 717 mmHg 58%

    Tomorrow, 19 June, Tuesday

    Time Temperature Precipitation Wind Pressure Humidity
    00:00 +12°C° 0 mm 3 mps 716 mmHg 62%
    01:00 +12°C° 0 mm 3 mps 716 mmHg 66%
    02:00 +11°C° 0 mm 3 mps 716 mmHg 70%
    03:00 +11°C° 0 mm 3 mps 716 mmHg 72%
    04:00 +11°C° 0 mm 3 mps 716 mmHg 74%
    05:00 +11°C° 0 mm 4 mps 717 mmHg 76%
    06:00 +12°C° 0 mm 4 mps 717 mmHg 74%
    07:00 +14°C° 0 mm 5 mps 717 mmHg 71%
    08:00 +15°C° 0 mm 6 mps 717 mmHg 68%
    09:00 +16°C° 0.1 mm 6 mps 718 mmHg 62%
    10:00 +19°C° 0.1 mm 6 mps 718 mmHg 57%
    11:00 +20°C° 0.1 mm 6 mps 718 mmHg 51%
    12:00 +21°C° 0.1 mm 5 mps 718 mmHg 47%
    13:00 +21°C° 0.1 mm 5 mps 719 mmHg 43%
    14:00 +22°C° 0.1 mm 5 mps 719 mmHg 39%
    15:00 +22°C° 0 mm 5 mps 719 mmHg 40%
    16:00 +22°C° 0 mm 5 mps 719 mmHg 41%
    17:00 +22°C° 0 mm 5 mps 719 mmHg 42%
    18:00 +21°C° 0 mm 4 mps 719 mmHg 46%
    19:00 +20°C° 0 mm 4 mps 719 mmHg 50%
    20:00 +19°C° 0 mm 3 mps 719 mmHg 55%
    21:00 +18°C° 0 mm 3 mps 719 mmHg 58%
    22:00 +17°C° 0 mm 3 mps 719 mmHg 60%
    23:00 +16°C° 0 mm 3 mps 719 mmHg 63%

    Day after tomorrow, 20 June, Wednesday

    Time Temperature Precipitation Wind Pressure Humidity
    00:00 +16°C° 0 mm 3 mps 719 mmHg 66%
    01:00 +14°C° 0 mm 3 mps 719 mmHg 69%
    02:00 +13°C° 0 mm 4 mps 719 mmHg 72%
    03:00 +13°C° 0 mm 4 mps 719 mmHg 73%
    04:00 +13°C° 0 mm 4 mps 719 mmHg 75%
    05:00 +13°C° 0 mm 4 mps 720 mmHg 76%
    06:00 +15°C° 0.1 mm 5 mps 720 mmHg 72%
    07:00 +17°C° 0.1 mm 6 mps 720 mmHg 67%
    08:00 +19°C° 0.1 mm 6 mps 720 mmHg 63%
    09:00 +21°C° 0.5 mm 7 mps 720 mmHg 59%
    10:00 +22°C° 0.5 mm 8 mps 720 mmHg 55%
    11:00 +23°C° 0.5 mm 8 mps 720 mmHg 51%
    12:00 +23°C° 0.1 mm 8 mps 720 mmHg 50%
    13:00 +23°C° 0.1 mm 7 mps 720 mmHg 49%
    14:00 +23°C° 0.1 mm 6 mps 720 mmHg 48%
    15:00 +23°C° 0 mm 6 mps 720 mmHg 49%
    16:00 +23°C° 0 mm 6 mps 720 mmHg 49%
    17:00 +23°C° 0 mm 6 mps 721 mmHg 49%
    18:00 +22°C° 0 mm 5 mps 721 mmHg 54%
    19:00 +21°C° 0 mm 4 mps 721 mmHg 58%
    20:00 +20°C° 0 mm 3 mps 721 mmHg 62%
    21:00 +19°C° 0 mm 3 mps 721 mmHg 65%
    22:00 +18°C° 0 mm 3 mps 721 mmHg 67%
    23:00 +17°C° 0 mm 3 mps 721 mmHg 70%

    21 June, Thursday

    Time Temperature Precipitation Wind Pressure Humidity
    00:00 +16°C° 0 mm 3 mps 721 mmHg 71%
    01:00 +16°C° 0 mm 3 mps 721 mmHg 72%
    02:00 +14°C° 0 mm 3 mps 721 mmHg 73%
    03:00 +14°C° 0 mm 3 mps 721 mmHg 72%
    04:00 +14°C° 0 mm 3 mps 721 mmHg 72%
    05:00 +14°C° 0 mm 4 mps 721 mmHg 71%
    06:00 +16°C° 0 mm 5 mps 721 mmHg 63%
    07:00 +19°C° 0 mm 6 mps 721 mmHg 55%
    08:00 +21°C° 0 mm 7 mps 721 mmHg 48%
    09:00 +23°C° 0 mm 8 mps 721 mmHg 46%
    10:00 +24°C° 0 mm 9 mps 721 mmHg 45%
    11:00 +26°C° 0 mm 10 mps 720 mmHg 43%
    12:00 +26°C° 0.1 mm 10 mps 720 mmHg 46%
    13:00 +26°C° 0.1 mm 10 mps 720 mmHg 49%
    14:00 +24°C° 0.1 mm 10 mps 720 mmHg 52%
    15:00 +24°C° 0.4 mm 9 mps 720 mmHg 56%
    16:00 +23°C° 0.4 mm 8 mps 720 mmHg 59%
    17:00 +22°C° 0.4 mm 7 mps 720 mmHg 63%
    18:00 +21°C° 0.2 mm 6 mps 720 mmHg 63%
    19:00 +20°C° 0.2 mm 5 mps 720 mmHg 63%
    20:00 +19°C° 0.2 mm 4 mps 720 mmHg 63%
    21:00 +18°C° 0 mm 3 mps 720 mmHg 64%
    22:00 +16°C° 0 mm 3 mps 720 mmHg 65%
    23:00 +15°C° 0 mm 2 mps 721 mmHg 65%

    22 June, Friday

    Time Temperature Precipitation Wind Pressure Humidity
    00:00 +13°C° 0 mm 3 mps 720 mmHg 66%
    01:00 +13°C° 0 mm 3 mps 720 mmHg 66%
    02:00 +12°C° 0 mm 3 mps 720 mmHg 67%
    03:00 +12°C° 0 mm 3 mps 720 mmHg 67%
    04:00 +12°C° 0 mm 4 mps 720 mmHg 68%
    05:00 +12°C° 0 mm 4 mps 720 mmHg 68%
    06:00 +14°C° 0 mm 5 mps 720 mmHg 61%
    07:00 +16°C° 0 mm 6 mps 720 mmHg 55%
    08:00 +18°C° 0 mm 7 mps 721 mmHg 48%
    09:00 +20°C° 0 mm 8 mps 720 mmHg 46%
    10:00 +21°C° 0 mm 8 mps 720 mmHg 43%
    11:00 +22°C° 0 mm 8 mps 720 mmHg 40%
    12:00 +22°C° 0 mm 8 mps 720 mmHg 40%
    13:00 +22°C° 0 mm 8 mps 720 mmHg 39%
    14:00 +22°C° 0 mm 8 mps 720 mmHg 38%
    15:00 +22°C° 0 mm 8 mps 720 mmHg 39%
    16:00 +22°C° 0 mm 8 mps 721 mmHg 40%
    17:00 +21°C° 0 mm 7 mps 721 mmHg 40%
    18:00 +20°C° 0 mm 6 mps 721 mmHg 43%
    19:00 +19°C° 0 mm 5 mps 721 mmHg 47%
    20:00 +18°C° 0 mm 4 mps 721 mmHg 50%
    21:00 +17°C° 0 mm 4 mps 721 mmHg 52%
    22:00 +16°C° 0 mm 3 mps 722 mmHg 54%
    23:00 +16°C° 0 mm 3 mps 722 mmHg 56%

    23 June, Saturday

    Time Temperature Precipitation Wind Pressure Humidity
    00:00 +14°C° 0 mm 3 mps 722 mmHg 56%
    01:00 +14°C° 0 mm 3 mps 721 mmHg 57%
    02:00 +13°C° 0 mm 3 mps 721 mmHg 57%
    03:00 +13°C° 0 mm 3 mps 721 mmHg 60%
    04:00 +13°C° 0 mm 3 mps 722 mmHg 62%
    05:00 +13°C° 0 mm 4 mps 722 mmHg 65%
    06:00 +14°C° 0.1 mm 4 mps 722 mmHg 65%
    07:00 +14°C° 0.1 mm 5 mps 722 mmHg 64%
    08:00 +15°C° 0.1 mm 5 mps 722 mmHg 64%
    09:00 +15°C° 0.1 mm 5 mps 722 mmHg 65%
    10:00 +15°C° 0.1 mm 6 mps 723 mmHg 67%
    11:00 +15°C° 0.1 mm 6 mps 723 mmHg 68%
    12:00 +15°C° 0 mm 6 mps 723 mmHg 66%
    13:00 +16°C° 0 mm 6 mps 723 mmHg 64%
    14:00 +17°C° 0 mm 5 mps 723 mmHg 62%
    15:00 +17°C° 0 mm 5 mps 723 mmHg 63%
    16:00 +17°C° 0 mm 5 mps 723 mmHg 64%
    17:00 +17°C° 0 mm 5 mps 723 mmHg 65%
    18:00 +18°C° 0 mm 4 mps 723 mmHg 68%
    19:00 +17°C° 0 mm 3 mps 724 mmHg 71%
    20:00 +17°C° 0 mm 3 mps 724 mmHg 74%
    21:00 +16°C° 0 mm 3 mps 724 mmHg 77%
    22:00 +14°C° 0 mm 3 mps 724 mmHg 81%
    23:00 +14°C° 0 mm 3 mps 724 mmHg 84%
    Show more